KO6TH-15 Weather Reports


time (UTC)temp
C
wind
direction
speed
KPH
gust
KPH
rain 1hr
cm
rain 24hr
cm
rain mn
cm
humidity
%
barometer
mb
20260502163620 22 0 3.2 0.0 0.00 0.00 0.00 59
20260502162550 22 0 3.2 0.0 0.00 0.00 0.00 61
20260502161520 21 0 0.0 0.0 0.00 0.00 0.00 63
20260502160520 21 0 1.6 0.0 0.00 0.00 0.00 64
20260502151420 17 0 0.0 0.0 0.00 0.00 0.00 80
20260502150420 16 0 0.0 0.0 0.00 0.00 0.00 94
20260502130120 12 0 0.0 0.0 0.00 0.00 0.00 97
20260502123020 12 0 1.6 0.0 0.00 0.00 0.00 95
20260502121950 11 0 0.0 0.0 0.00 0.00 0.00 99
20260502120950 11 0 0.0 0.0 0.00 0.00 0.00 99
20260502114920 11 0 0.0 0.0 0.00 0.00 0.00 99
20260502113850 11 0 0.0 0.0 0.00 0.00 0.00 99
20260502112850 12 0 0.0 0.0 0.00 0.00 0.00 99
20260502111820 12 0 0.0 0.0 0.00 0.00 0.00 99
20260502110750 12 0 0.0 0.0 0.00 0.00 0.00 99
20260502105750 12 0 0.0 0.0 0.00 0.00 0.00 99
20260502104720 12 0 0.0 0.0 0.00 0.00 0.00 98
20260502103650 12 0 0.0 0.0 0.00 0.00 0.00 98
20260502102650 12 0 0.0 0.0 0.00 0.00 0.00 99
20260502101620 12 0 0.0 0.0 0.00 0.00 0.00 99
20260502100620 12 0 0.0 0.0 0.00 0.00 0.00 99
20260502091520 13 0 0.0 0.0 0.00 0.00 0.00 97
20260502090450 13 0 0.0 0.0 0.00 0.00 0.00 97
20260502071120 13 0 0.0 0.0 0.00 0.00 0.00 98
20260502070050 13 0 0.0 0.0 0.00 0.00 0.00 97
20260502065050 14 0 0.0 0.0 0.00 0.00 0.00 96
20260502064020 14 0 0.0 0.0 0.00 0.00 0.00 96
20260502063020 14 0 0.0 0.0 0.00 0.00 0.00 96
20260502062020 15 0 1.6 0.0 0.00 0.00 0.00 96
20260502061020 14 0 0.0 0.0 0.00 0.00 0.00 97
20260502060020 14 0 0.0 0.0 0.00 0.00 0.00 96
20260502054950 15 0 0.0 0.0 0.00 0.00 0.00 96
20260502053920 15 0 0.0 0.0 0.00 0.00 0.00 94
20260502052850 15 0 0.0 0.0 0.00 0.00 0.00 93
20260502051820 15 0 0.0 0.0 0.00 0.00 0.00 93
20260502050820 15 0 0.0 0.0 0.00 0.00 0.00 93
20260502045820 16 0 0.0 0.0 0.00 0.00 0.00 91
20260502044750 16 0 0.0 0.0 0.00 0.00 0.00 89
20260502043750 16 0 0.0 0.0 0.00 0.00 0.00 87
20260502042750 16 0 0.0 0.0 0.00 0.00 0.00 87
20260502041720 17 0 0.0 0.0 0.00 0.00 0.00 84
20260502040720 17 0 0.0 0.0 0.00 0.00 0.00 83
20260502035650 17 0 0.0 0.0 0.00 0.00 0.00 83
20260502034650 18 0 0.0 0.0 0.00 0.00 0.00 80
20260502033620 18 0 0.0 0.0 0.00 0.00 0.00 79
20260502032620 19 0 0.0 0.0 0.00 0.00 0.00 77
20260502031620 20 0 0.0 0.0 0.00 0.00 0.00 76
20260502030620 21 0 0.0 0.0 0.00 0.00 0.00 74
20260502025550 21 0 0.0 0.0 0.00 0.00 0.00 72
20260502024520 22 0 0.0 0.0 0.00 0.00 0.00 71
20260502023520 22 0 0.0 0.0 0.00 0.00 0.00 67
20260502022450 23 0 0.0 0.0 0.00 0.00 0.00 66
20260502021420 23 0 0.0 0.0 0.00 0.00 0.00 63
20260502020350 24 0 0.0 0.0 0.00 0.00 0.00 60
20260502015320 25 0 1.6 0.0 0.00 0.00 0.00 58
20260502014250 25 0 3.2 0.0 0.00 0.00 0.00 56
20260502013220 25 0 3.2 0.0 0.00 0.00 0.00 54
20260502012220 26 0 1.6 0.0 0.00 0.00 0.00 54
20260502011150 26 0 3.2 0.0 0.00 0.00 0.00 53
20260502010120 26 0 3.2 0.0 0.00 0.00 0.00 52
20260502005050 27 0 4.8 0.0 0.00 0.00 0.00 49
20260502004050 27 0 1.6 0.0 0.00 0.00 0.00 47
20260502003020 27 0 3.2 0.0 0.00 0.00 0.00 47
20260502001950 27 0 3.2 0.0 0.00 0.00 0.00 46
20260502000920 28 0 4.8 0.0 0.00 0.00 0.00 44
20260501235850 30 0 6.4 0.0 0.00 0.00 0.00 44
20260501234850 30 0 3.2 0.0 0.00 0.00 0.00 43
20260501233820 30 0 3.2 0.0 0.00 0.00 0.00 42
20260501232820 30 0 3.2 0.0 0.00 0.00 0.00 42
20260501231750 30 0 1.6 0.0 0.00 0.00 0.00 42
20260501230750 31 0 3.2 0.0 0.00 0.00 0.00 43
20260501225720 30 0 1.6 0.0 0.00 0.00 0.00 44
20260501224650 29 0 6.4 0.0 0.00 0.00 0.00 45
20260501223620 30 0 6.4 0.0 0.00 0.00 0.00 45
20260501222550 30 0 8.0 0.0 0.00 0.00 0.00 43
20260501221550 30 0 1.6 0.0 0.00 0.00 0.00 42
20260501220520 30 0 3.2 0.0 0.00 0.00 0.00 43
20260501215450 30 0 4.8 0.0 0.00 0.00 0.00 43
20260501214420 29 0 1.6 0.0 0.00 0.00 0.00 45
20260501213350 30 0 1.6 0.0 0.00 0.00 0.00 45
20260501212320 30 0 1.6 0.0 0.00 0.00 0.00 45
20260501211320 28 0 6.4 0.0 0.00 0.00 0.00 46
20260501210320 29 0 3.2 0.0 0.00 0.00 0.00 46
20260501205320 28 0 3.2 0.0 0.00 0.00 0.00 47
20260501204250 28 0 6.4 0.0 0.00 0.00 0.00 46
20260501203220 28 0 1.6 0.0 0.00 0.00 0.00 46
20260501202220 28 0 4.8 0.0 0.00 0.00 0.00 48
20260501201220 27 0 4.8 0.0 0.00 0.00 0.00 49
20260501200150 27 0 4.8 0.0 0.00 0.00 0.00 49
20260501195120 27 0 8.0 0.0 0.00 0.00 0.00 47
20260501194120 27 0 4.8 0.0 0.00 0.00 0.00 49
20260501193050 28 0 9.7 0.0 0.00 0.00 0.00 48
20260501192020 27 0 4.8 0.0 0.00 0.00 0.00 49
20260501191020 27 0 3.2 0.0 0.00 0.00 0.00 50
20260501190020 27 0 6.4 0.0 0.00 0.00 0.00 50
20260501184950 26 0 1.6 0.0 0.00 0.00 0.00 52
20260501183950 26 0 3.2 0.0 0.00 0.00 0.00 52
20260501182920 26 0 4.8 0.0 0.00 0.00 0.00 54
20260501181850 25 0 8.0 0.0 0.00 0.00 0.00 55
20260501180820 25 0 1.6 0.0 0.00 0.00 0.00 56
20260501175750 24 0 6.4 0.0 0.00 0.00 0.00 57
20260501174720 25 0 3.2 0.0 0.00 0.00 0.00 55
20260501173650 24 0 4.8 0.0 0.00 0.00 0.00 56
20260501172620 23 0 3.2 0.0 0.00 0.00 0.00 58